COSMOS 2251 DEB, 34127

Orbit data source: Space-Track

COSMOS 2251 DEB, 34127 is space debris in LEO originally from a launch on Wed, 16 Jun 1993 UTC launched from the Plesetsk Missile And Space Complex (PKMTR). The debris from Iridium 33, an American commercial communications satellite, has been tracked extensively since its accidental collision with the defunct Russian satellite Cosmos 2251 in 2009. This event, occurring at high speed in low Earth orbit (LEO), generated thousands of pieces of space debris, significantly increasing the risk of further collisions. The Iridium 33 debris cloud has impacted space traffic management and orbital debris mitigation strategies, making it a subject of ongoing study in space situational awareness.

Loading next visibility...
Identifier
34127, 1993-036KY
Orbit
LEO
Country
Flag of CISCIS
Related business
Manufacturer
Unknown
Mission
Spacecraft
Bus & Motor
Unknown
Mass
Unknown
Launch date (UTC)
1993-06-16 (33 years ago)
Launch vehicle
Unknown
Launch site
Plesetsk Missile And Space Complex (PKMTR)
Object type
Payload
Rocket body
Debris
Shape & HBR
Unknown shape, 0.1 m
Radar Cross Section
Small (<0.1 m²)

Expand to show TLE details & history
Last TLE update: 15 hours ago

TLE from 15 hours ago
0 COSMOS 2251 DEB
1 34127U 93036KY  26106.55518840  .00001764  00000-0  61420-3 0  9993
2 34127  74.1772 178.0800 0112887 341.2709 130.1082 14.32611248885585
Epoch: 2026-04-16T13:19Z
TLE epoch observation values (Epoch: 2026-04-16T13:19:28.277Z)
Latitude
62.9454°
Longitude
-79.99138°
Altitude
846.098 km
Speed
7.408 km/s
True Right ascension
21h 38m 18s
True Declination
62° 48' 27"
Sunlit
Object was in daylight at epoch
Visualization orbit readout
Latitude
Unknown
Longitude
Unknown
Altitude
Unknown
Speed
Unknown
Apparent Right ascension
Unknown
Apparent Declination
Unknown
Sunlit
N/A
Visualization observer readout
Local Sidereal Time
10:43:31
Azimuth
Unknown
Elevation
Unknown
Doppler factor
Unknown
Orbital elements
Apogee altitude
861.444 km
Perigee altitude
699.818 km
Semi-major axis
7,158.768 km
Eccentricity
0.01129
Inclination
74.1772°
RAAN
178.08°
Arg. of periapsis
341.2709°
True anomaly
131.08861°
Mean anomaly
130.1082°
Eccentric anomaly
130.5993°
Mean motion
3.58332 °/min
Orbital period
100.47 mins
BSTAR
0.0006142
Loading maneuver chart data...
Computing Atmospheric mass density...

Documentation

Showing up to 5 results
|